Regional Weather Roundup
Issued by NWS

Home | Current Version | Previous Version | Graphics & Text | Print | Product List | Glossary On
Versions: 1 2 3 4 5 6 7 8 9 10 11 12 13 14 15 16 17 18 19 20 21 22 23 24 25 26 27 28 29 30 31 32 33 34 35 36 37 38 39 40 41 42 43 44 45 46 47 48 49 50
000
ASUS43 KLSX 220059
RWRMO

WEATHER SUMMARY FOR MISSOURI
NATIONAL WEATHER SERVICE SPRINGFIELD MO
800 PM CDT SUN SEP 21 2014

NOTE: "FAIR" INDICATES FEW OR NO CLOUDS BELOW 12,000 FEET WITH NO
       SIGNIFICANT WEATHER AND/OR OBSTRUCTIONS TO VISIBILITY.
       CURRENT SKY AND/OR WEATHER CONDITIONS ARE NOT AVAILABLE FOR
       CHILLICOTHE AND FARMINGTON.

MOZ001>031-035>038-043-044-053-054-220200-
...NORTHERN AND WESTERN MISSOURI...

CITY           SKY/WX    TMP DP  RH WIND       PRES   REMARKS
KANSAS CTY INT CLEAR     63  49  60 N6        30.19R
KANSAS C DTWN  CLEAR     67  49  52 N6        30.18R
LEE`S SUMMIT   CLEAR     64  48  56 N7        30.19R
ST JOSEPH      CLEAR     60  50  69 N5        30.20R
KIRKSVILLE     CLEAR     60  49  66 N3        30.18R

$$
MOZ066>068-077>081-088>096-101>105-220200-
...SOUTHWEST MISSOURI...

CITY           SKY/WX    TMP DP  RH WIND       PRES   REMARKS
SPRINGFIELD    CLEAR     65  50  58 N8        30.14R
JOPLIN         CLEAR     64  52  64 N6        30.16R

$$
MOZ032>034-039>042-045>050-055>058-069>072-220200-
...CENTRAL MISSOURI...

CITY           SKY/WX    TMP DP  RH WIND       PRES   REMARKS
COLUMBIA       CLEAR     61  50  67 NW7       30.15R
JEFFERSON CITY CLEAR     67  49  52 N7        30.14R
ROLLA          CLEAR     62  48  60 N7        30.12R
SEDALIA        CLEAR     61  51  70 N7        30.17R
OSAGE BEACH    CLEAR     64  46  52 N3        30.14R

$$
MOZ051-052-059>065-220200-
...EAST CENTRAL MISSOURI...

CITY           SKY/WX    TMP DP  RH WIND       PRES   REMARKS
ST LOUIS INTL  PTCLDY    66  50  56 N6        30.11R
SPIRIT OF STL  PTCLDY    66  50  56 N8        30.10R
ST CHARLES     CLEAR     63  51  65 N8        30.10R

$$
MOZ072>076-082>087-097>100-106>115-220200-
...SOUTH CENTRAL AND SOUTHEAST MISSOURI...

CITY           SKY/WX    TMP DP  RH WIND       PRES   REMARKS
CAPE GIRARDEAU CLEAR     68  50  52 N8        30.05R
FARMINGTON     CLEAR     66  46  48 N6        30.12R
POPLAR BLUFF   CLEAR     65  52  62 NW5       30.04R
WEST PLAINS    CLEAR     64  50  60 NW3       30.13R

$$


USA.gov is the U.S. government's official web portal to all federal, state and local government web resources and services.